Main page
METAR-TAF:

METAR-TAF

Airports :

Alamogordo–White Sands Regional Airport

Alamogordo, New Mexico, United States

latitude: 32-50N, longitude: 105-59W, elevation: 4195 ft

Current weather observation

The report was made 33 minutes ago, at 12:35 UTC
Wind 9 mph from the North
Temperature 37°F
Humidity 60%
Pressure 30.23 in. Hg
Visibility: 10 miles
Clear sky

METAR: KALM 211235Z AUTO 01008KT 10SM CLR 03/M04 A3023 RMK AO2

Time: 06:08 (13:08 UTC)


TAF: missing

Weather observations and forecasts of more than 4000 airports (METAR and TAF reports).

The available stations are represented by yellow and red dots on the map.

Hover mouse over dot to see the name of the station.

Then click to see weather observations and forecasts.

To change the map : click on the green buttons with a black cross to zoom in, on the green button with a dash to zoom out, or on the green arrows for adjacent maps.


METAR-TAF: